Location: Penton Mewsey
(51.2167°N, 1.5167°W)
Time: 11:49:12
(UTC+00:00)

Cosmos 1726 - Pass Details

Date: 30 March 2020
Orbit: 481 x 500 km, 82.5° (Epoch: 24 May)

Event Time Altitude Azimuth Distance (km) Brightness Sun altitude
Exits shadow 19:43:04 16° 116° (ESE) 1,366 3.7 -10.9°
Maximum altitude 19:44:26 20° 87° (E) 1,229 3.6 -11.1°
Drops below altitude 10° 19:47:11 10° 40° (NE) 1,719 4.7 -11.5°
Sets 19:49:43 0° 23° (NNE) 2,608 5.8 -11.9°
